TimeCDT,TemperatureF,Dew PointF,Humidity,Sea Level PressureIn,VisibilityMPH,Wind Direction,Wind SpeedMPH,Gust SpeedMPH,PrecipitationIn,Events,Conditions,WindDirDegrees,DateUTC
12:55 AM,70.5,65.7,85,30.10,10.0,SSE,4.6,-,N/A,,Clear,150,2012-10-13 05:55:00
1:15 AM,70.2,65.8,86,30.10,10.0,SSE,3.5,-,N/A,,Clear,150,2012-10-13 06:15:00
1:35 AM,69.8,66.2,88,30.09,10.0,South,4.6,-,N/A,,Clear,170,2012-10-13 06:35:00
1:55 AM,69.8,66.6,89,30.09,10.0,South,4.6,-,N/A,,Clear,170,2012-10-13 06:55:00
2:15 AM,69.8,67.1,91,30.08,10.0,SSE,6.9,-,N/A,,Clear,160,2012-10-13 07:15:00
2:35 AM,70.0,67.1,91,30.07,10.0,SSE,6.9,-,N/A,,Clear,150,2012-10-13 07:35:00
2:55 AM,69.8,67.1,91,30.06,10.0,South,6.9,-,N/A,,Clear,170,2012-10-13 07:55:00
3:15 AM,70.0,67.3,91,30.06,10.0,South,6.9,-,N/A,,Clear,180,2012-10-13 08:15:00
3:35 AM,70.0,67.5,92,30.06,10.0,South,9.2,-,N/A,,Clear,180,2012-10-13 08:35:00
3:55 AM,70.2,67.8,92,30.06,10.0,South,8.1,-,N/A,,Mostly Cloudy,180,2012-10-13 08:55:00
4:15 AM,70.5,68.0,92,30.06,10.0,South,9.2,-,N/A,,Overcast,180,2012-10-13 09:15:00
4:35 AM,70.3,67.5,91,30.07,10.0,South,6.9,-,N/A,,Overcast,170,2012-10-13 09:35:00
4:55 AM,70.0,67.6,92,30.06,10.0,South,5.8,-,N/A,,Scattered Clouds,170,2012-10-13 09:55:00
5:15 AM,69.8,68.0,94,30.07,10.0,South,5.8,-,N/A,,Mostly Cloudy,170,2012-10-13 10:15:00
5:55 AM,70.5,68.2,92,30.07,10.0,South,9.2,-,N/A,,Overcast,170,2012-10-13 10:55:00
6:15 AM,70.9,68.5,92,30.07,10.0,South,6.9,-,N/A,,Overcast,180,2012-10-13 11:15:00
6:35 AM,70.9,68.5,92,30.07,10.0,South,10.4,-,N/A,,Overcast,180,2012-10-13 11:35:00
6:55 AM,70.9,68.7,93,30.07,10.0,South,8.1,-,N/A,,Overcast,190,2012-10-13 11:55:00
7:15 AM,70.9,68.7,93,30.08,10.0,South,6.9,-,N/A,,Overcast,180,2012-10-13 12:15:00
7:35 AM,70.9,68.9,93,30.08,10.0,South,9.2,-,N/A,,Overcast,170,2012-10-13 12:35:00
7:55 AM,70.9,68.9,93,30.07,10.0,South,6.9,-,N/A,,Overcast,170,2012-10-13 12:55:00
8:15 AM,71.2,68.9,92,30.07,10.0,South,6.9,-,N/A,,Overcast,170,2012-10-13 13:15:00
8:55 AM,71.8,69.3,92,30.08,10.0,South,8.1,-,N/A,,Overcast,180,2012-10-13 13:55:00
9:35 AM,73.4,69.6,88,30.09,10.0,South,11.5,16.1,N/A,,Overcast,170,2012-10-13 14:35:00
9:55 AM,74.1,69.4,85,30.09,10.0,South,8.1,-,N/A,,Overcast,170,2012-10-13 14:55:00
10:15 AM,74.8,69.3,83,30.09,10.0,South,8.1,17.3,N/A,,Overcast,180,2012-10-13 15:15:00
10:35 AM,75.9,69.1,79,30.09,10.0,South,16.1,21.9,N/A,,Overcast,180,2012-10-13 15:35:00
10:55 AM,76.6,68.5,76,30.09,10.0,South,10.4,25.3,N/A,,Overcast,190,2012-10-13 15:55:00
11:15 AM,76.6,68.0,75,30.09,10.0,South,11.5,21.9,N/A,,Overcast,190,2012-10-13 16:15:00
11:35 AM,78.3,67.5,69,30.07,10.0,South,13.8,20.7,N/A,,Mostly Cloudy,180,2012-10-13 16:35:00
11:55 AM,78.6,67.5,68,30.07,10.0,South,10.4,17.3,N/A,,Mostly Cloudy,190,2012-10-13 16:55:00
12:35 PM,81.0,66.7,62,30.04,10.0,South,16.1,20.7,N/A,,Clear,180,2012-10-13 17:35:00
12:55 PM,81.5,66.2,60,30.03,10.0,South,13.8,19.6,N/A,,Scattered Clouds,190,2012-10-13 17:55:00
1:15 PM,82.0,66.4,59,30.01,10.0,South,13.8,19.6,N/A,,Scattered Clouds,170,2012-10-13 18:15:00
1:35 PM,82.2,66.2,58,30.00,10.0,South,15.0,19.6,N/A,,Scattered Clouds,180,2012-10-13 18:35:00
1:55 PM,82.8,65.8,56,29.98,10.0,South,10.4,20.7,N/A,,Mostly Cloudy,190,2012-10-13 18:55:00
2:15 PM,83.5,65.7,55,29.96,10.0,South,17.3,21.9,N/A,,Scattered Clouds,170,2012-10-13 19:15:00
2:35 PM,83.5,65.8,55,29.96,10.0,South,13.8,24.2,N/A,,Scattered Clouds,190,2012-10-13 19:35:00
2:55 PM,83.5,65.1,54,29.96,10.0,South,12.7,20.7,N/A,,Scattered Clouds,190,2012-10-13 19:55:00
3:15 PM,83.3,63.9,52,29.95,10.0,South,13.8,20.7,N/A,,Mostly Cloudy,170,2012-10-13 20:15:00
3:35 PM,82.4,63.7,53,29.95,10.0,South,9.2,-,N/A,,Mostly Cloudy,190,2012-10-13 20:35:00
3:55 PM,82.2,63.9,54,29.94,10.0,South,6.9,-,N/A,,Mostly Cloudy,180,2012-10-13 20:55:00
4:15 PM,81.5,64.9,57,29.93,10.0,South,8.1,-,N/A,,Overcast,180,2012-10-13 21:15:00
4:35 PM,81.5,64.6,56,29.93,10.0,South,8.1,-,N/A,,Overcast,180,2012-10-13 21:35:00
4:55 PM,81.3,64.8,57,29.92,10.0,South,3.5,-,N/A,,Overcast,190,2012-10-13 21:55:00
5:15 PM,80.8,65.5,59,29.91,10.0,Calm,Calm,-,N/A,,Overcast,0,2012-10-13 22:15:00
5:55 PM,75.4,68.7,80,29.87,7.0,SSE,6.9,-,0.04,Rain,Light Rain,150,2012-10-13 22:55:00
6:15 PM,75.6,69.3,81,29.88,10.0,South,4.6,-,N/A,,Scattered Clouds,190,2012-10-13 23:15:00
6:35 PM,75.4,69.4,82,29.89,10.0,SSW,4.6,-,N/A,,Clear,200,2012-10-13 23:35:00
7:35 PM,75.0,68.9,81,29.89,10.0,South,9.2,-,N/A,,Clear,180,2012-10-14 00:35:00
7:55 PM,75.9,67.8,76,29.89,10.0,South,10.4,16.1,N/A,,Clear,180,2012-10-14 00:55:00
9:15 PM,75.2,69.1,81,29.91,10.0,South,11.5,16.1,N/A,,Clear,170,2012-10-14 02:15:00
9:35 PM,75.0,69.3,82,29.90,10.0,South,8.1,23.0,N/A,,Scattered Clouds,180,2012-10-14 02:35:00
9:55 PM,74.8,69.1,82,29.91,10.0,South,12.7,20.7,N/A,,Mostly Cloudy,180,2012-10-14 02:55:00
10:15 PM,75.2,68.9,81,29.92,10.0,South,10.4,-,N/A,,Mostly Cloudy,180,2012-10-14 03:15:00
11:15 PM,74.3,69.1,84,29.91,10.0,South,13.8,18.4,N/A,,Overcast,180,2012-10-14 04:15:00
11:35 PM,73.9,69.1,85,29.91,10.0,South,12.7,18.4,N/A,,Mostly Cloudy,190,2012-10-14 04:35:00
11:55 PM,73.9,69.1,85,29.91,10.0,South,10.4,18.4,N/A,,Mostly Cloudy,190,2012-10-14 04:55:00